HAHCR LHBS-LHBP

Flight info

Callsign HAHCR
Flight time 0h 4m
Altitude 1500
Route TSEPEL
Aircraft EC35/M-SBGRW/S

Departure

Time 2026-05-05 19:46
Airport Budaörs Airfield (LHBS)

Arrival

Time 2026-05-05 19:50
Airport Budapest Liszt Ferenc International Airport (LHBP)
Time Latitude Longitude Altitude Speed Heading
2026-05-05 19:45 47.44830 18.98449 419 ft 0 kts 62°
2026-05-05 19:45 47.44902 18.98826 511 ft 95 kts 94°
2026-05-05 19:46 47.44915 18.99946 1026 ft 110 kts 102°
2026-05-05 19:46 47.44827 19.01177 1357 ft 133 kts 99°
2026-05-05 19:46 47.44841 19.02716 1250 ft 160 kts 88°
2026-05-05 19:46 47.45001 19.04355 1177 ft 162 kts 77°
2026-05-05 19:47 47.45532 19.05742 1314 ft 154 kts 39°
2026-05-05 19:47 47.45425 19.06716 1658 ft 113 kts 195°
2026-05-05 19:47 47.45654 19.06028 1360 ft 150 kts 11°
2026-05-05 19:47 47.46444 19.06985 1104 ft 115 kts 98°
2026-05-05 19:48 47.46110 19.06861 1110 ft 109 kts 287°
2026-05-05 19:48 47.46636 19.06351 1499 ft 90 kts 54°
2026-05-05 19:48 47.46296 19.07066 930 ft 144 kts 159°
2026-05-05 19:48 47.45325 19.07221 643 ft 128 kts 174°
2026-05-05 19:49 47.45285 19.07884 985 ft 105 kts 347°
2026-05-05 19:49 47.45560 19.06919 561 ft 138 kts 245°
2026-05-05 19:49 47.44771 19.06863 953 ft 133 kts 141°
2026-05-05 19:49 47.44294 19.07439 880 ft 127 kts 246°
2026-05-05 19:50 47.44385 19.07165 349 ft 1 kts 201°
2026-05-05 19:50 47.44800 18.98356 563 ft 40 kts 16°
2026-05-05 19:50 47.45153 18.98535 878 ft 102 kts 49°
2026-05-05 19:51 47.45451 18.99824 889 ft 142 kts 76°
2026-05-05 19:51 47.45736 19.01199 1149 ft 146 kts 76°
2026-05-05 19:51 47.45755 19.02800 946 ft 166 kts 94°
2026-05-05 19:51 47.45441 19.04486 733 ft 167 kts 116°
2026-05-05 19:52 47.44934 19.05946 998 ft 152 kts 123°
2026-05-05 19:52 47.44411 19.07203 1454 ft 144 kts 129°
2026-05-05 19:52 47.44525 19.08589 1903 ft 156 kts 40°
2026-05-05 19:52 47.45308 19.08050 1932 ft 145 kts 272°
2026-05-05 19:53 47.44604 19.07364 1700 ft 153 kts 158°
2026-05-05 19:53 47.44739 19.08630 1600 ft 172 kts
2026-05-05 19:53 47.45572 19.07902 1714 ft 144 kts 283°
2026-05-05 19:53 47.45079 19.06959 1467 ft 148 kts 186°
2026-05-05 19:54 47.44854 19.08026 1245 ft 157 kts 12°
2026-05-05 19:54 47.45656 19.07171 927 ft 160 kts 334°
2026-05-05 19:54 47.46174 19.08055 700 ft 168 kts 141°
2026-05-05 19:54 47.45834 19.07415 701 ft 140 kts 330°
2026-05-05 19:55 47.46005 19.08190 671 ft 142 kts 179°
2026-05-05 19:55 47.45868 19.07120 905 ft 141 kts 311°
2026-05-05 19:55 47.45794 19.06271 1377 ft 136 kts 186°
2026-05-05 19:55 47.45562 19.07618 915 ft 181 kts 41°
2026-05-05 19:56 47.46404 19.07149 1209 ft 140 kts 281°
2026-05-05 19:56 47.45839 19.06004 1012 ft 147 kts 209°
2026-05-05 19:56 47.44844 19.05426 866 ft 150 kts 214°
2026-05-05 19:56 47.44876 19.04163 826 ft 142 kts 322°
2026-05-05 19:57 47.45730 19.03932 737 ft 92 kts
2026-05-05 19:57 47.46061 19.04931 580 ft 150 kts 91°
2026-05-05 19:57 47.46021 19.06536 608 ft 156 kts 94°
2026-05-05 19:57 47.45918 19.08106 832 ft 154 kts 100°
2026-05-05 19:58 47.45777 19.09570 1132 ft 140 kts 100°
2026-05-05 19:58 47.45602 19.11029 1090 ft 152 kts 100°
2026-05-05 19:58 47.45467 19.12621 896 ft 157 kts 99°
2026-05-05 19:58 47.45091 19.13971 1175 ft 129 kts 124°
2026-05-05 19:59 47.44842 19.15201 1320 ft 121 kts 104°
2026-05-05 19:59 47.44618 19.15009 859 ft 136 kts 331°
2026-05-05 19:59 47.45239 19.15782 820 ft 126 kts 78°
2026-05-05 19:59 47.45189 19.17113 819 ft 138 kts 94°
2026-05-05 20:00 47.45121 19.18577 882 ft 141 kts 95°
2026-05-05 20:00 47.45101 19.19795 959 ft 101 kts 82°
2026-05-05 20:00 47.45134 19.20656 891 ft 61 kts 64°
2026-05-05 20:00 47.45003 19.21020 644 ft 33 kts 86°
2026-05-05 20:01 47.44863 19.21186 591 ft 21 kts 75°
2026-05-05 20:01 47.44795 19.21445 669 ft 46 kts 89°
2026-05-05 20:01 47.44775 19.21912 601 ft 87 kts 104°
2026-05-05 20:01 47.44362 19.22907 510 ft 125 kts 130°
2026-05-05 20:02 47.43826 19.23785 531 ft 108 kts 125°
2026-05-05 20:02 47.43454 19.24675 493 ft 79 kts 114°
2026-05-05 20:02 47.43576 19.24550 477 ft 72 kts 289°
2026-05-05 20:02 47.43501 19.24220 658 ft 76 kts 70°
2026-05-05 20:03 47.43766 19.24821 673 ft 68 kts 147°
2026-05-05 20:03 47.43471 19.24790 490 ft 45 kts 306°
2026-05-05 20:03 47.43557 19.24602 441 ft 0 kts 313°
2026-05-05 20:04 47.43603 19.24570 458 ft 22 kts 275°
2026-05-05 20:04 47.43467 19.24751 510 ft 95 kts 84°
2026-05-05 20:05 47.43343 19.24940 585 ft 72 kts 72°
2026-05-05 20:05 47.43268 19.24873 493 ft 108 kts 282°
2026-05-05 20:05 47.43072 19.25035 623 ft 92 kts 12°
2026-05-05 20:05 47.43296 19.25299 594 ft 18 kts 320°
2026-05-05 20:06 47.43376 19.25265 577 ft 13 kts 167°
2026-05-05 20:06 47.43398 19.25362 627 ft 18 kts 184°
2026-05-05 20:06 47.43358 19.25304 636 ft 30 kts 237°
2026-05-05 20:06 47.43415 19.25099 696 ft 51 kts 342°
2026-05-05 20:07 47.43418 19.25401 548 ft 58 kts 263°
2026-05-05 20:07 47.43555 19.25352 499 ft 73 kts 86°
2026-05-05 20:07 47.43485 19.25602 566 ft 38 kts 270°
2026-05-05 20:07 47.43334 19.25125 559 ft 52 kts 285°
2026-05-05 20:08 47.43255 19.25072 610 ft 51 kts 353°
2026-05-05 20:08 47.43318 19.25271 856 ft 18 kts 191°
2026-05-05 20:08 47.43433 19.25445 621 ft 36 kts 147°
2026-05-05 20:08 47.43232 19.25606 503 ft 25 kts 102°
2026-05-05 20:09 47.43290 19.25528 493 ft 46 kts 312°
2026-05-05 20:09 47.43385 19.25552 604 ft 48 kts 214°
2026-05-05 20:09 47.43127 19.25803 657 ft 19 kts 300°
2026-05-05 20:09 47.43151 19.25826 563 ft 12 kts 161°
2026-05-05 20:10 47.43126 19.25901 467 ft 7 kts 232°
2026-05-05 20:10 47.43131 19.25912 463 ft 0 kts 223°
2026-05-05 20:10 47.43147 19.25894 468 ft 7 kts 264°
2026-05-05 20:10 47.43159 19.25946 521 ft 21 kts 279°
2026-05-05 20:11 47.43140 19.25909 623 ft 52 kts 90°